Location: Doverdale
(52.2833°N, 2.2000°W)
Time: 02:17:32
(UTC+00:00)

Cosmos 1980 Rocket - Pass Details

Date: 05 March 2021
Orbit: 828 x 851 km, 71.0° (Epoch: 15 April)

Event Time Altitude Azimuth Distance (km) Brightness Sun altitude
Rises 18:21:50 0° 230° (SW) 3,394 6.3 -4.8°
Reaches altitude 10° 18:24:22 10° 236° (SW) 2,465 5.7 -5.2°
Maximum altitude 18:29:49 47° 310° (NW) 1,115 3.3 -6.0°
Drops below altitude 10° 18:35:20 10° 24° (NNE) 2,489 4.4 -6.9°
Sets 18:37:54 0° 31° (NNE) 3,429 5.1 -7.3°
